Location: Atherton
(17.2661°S, 145.4859°E)
Time: 18:33:56
(UTC+10:00)

ACS3 Solar Sail - Pass Details

Date: 24 May 2025
Orbit: 920 x 1019 km, 97.5° (Epoch: 20 June)

Event Time Altitude Azimuth Distance (km) Brightness Sun altitude
Rises 05:44:39 0° 3° (N) 3,543 5.0 -12.9°
Reaches altitude 10° 05:47:04 10° 360° (N) 2,610 4.3 -12.3°
Maximum altitude 05:52:49 60° 280° (W) 1,061 1.8 -11.0°
Drops below altitude 10° 05:58:43 10° 201° (SSW) 2,679 3.7 -9.7°
Sets 06:01:14 0° 197° (SSW) 3,644 4.4 -9.1°
